Location: Unspecified
(0.0000°N, 0.0000°E)
Time: 07:22:41
(UTC+00:00)

S-56A Canister/Altair - Pass Details

Date: 30 May 2024
Orbit: 637 x 2489 km, 38.9° (Epoch: 22 June)

Event Time Altitude Azimuth Distance (km) Brightness Sun altitude
Rises 13:14:42 0° 294° (WNW) 3,451 11.3 61.2°
Reaches altitude 10° 13:17:46 10° 283° (WNW) 2,310 10.5 60.7°
Maximum altitude 13:22:09 28° 223° (SW) 1,244 9.0 59.9°
Drops below altitude 10° 13:26:02 10° 162° (SSE) 2,019 9.5 59.3°
Sets 13:28:33 0° 150° (SSE) 2,936 10.2 58.9°
